Flag for Uruguay Weather past 2 weeks in Minas, Uruguay

Now
59 °F

Clear.


Feels Like: 57 °F
Forecast: N/A
Wind: 9 mph from East

Location: Capitan Corbeta

Current Time: Sep 1, 2014 at 6:46:33 PM

Latest Report: Sep 1, 2014 at 6:00 PM


Visibility: 10 mi

Pressure: 29.95 "Hg

Humidity: 72%

Dew point: 50 °F

Location of MinasLocation

Historic Weather in Minas — Graph

°F

Minas temperature yesterday

Maximum temperature yesterday: 61 °F (at 10:00 AM)
Minimum temperature yesterday: 50 °F (at 9:00 PM)
Average temperature yesterday: 55 °F

Past Weeks' High & Low Weather Summary

 TemperatureHumidityPressure
High84 °F (Aug 21, 2:00 PM)100% (Aug 18, 8:00 AM)30.24 "Hg (Aug 18, 8:00 AM)
Low39 °F (Aug 29, 6:00 AM)42% (Aug 21, 1:00 PM)29.36 "Hg (Aug 25, 11:00 PM)
Average56 °F78%29.93 "Hg
* Reported Aug 17 5:00 PM — Sep 1 5:00 PM, Minas, Weather by CustomWeather, © 2014

Note: Actual official high and low records may vary slightly from our data, if they occured in-between our weather recording intervals... More about our weather records

Advertising

Minas weather history for previous 24 hours

 ConditionsComfort  
Time TempWeatherWind HumidityBarometerVisibility
5:00 PM
Sep 1
61 °FScattered clouds.10 mph55%29.95 "HgN/A
2:00 PM63 °FBroken clouds.13 mph64%29.95 "HgN/A
1:00 PM63 °FPartly sunny.13 mph73%29.98 "HgN/A
12:00 PM63 °FPartly sunny.10 mph68%29.98 "HgN/A
11:00 AM59 °FPartly sunny.6 mph82%29.98 "Hg5 mi
10:00 AM55 °FFog.5 mph94%29.98 "Hg3 mi
9:00 AM54 °FMostly cloudy.3 mph94%29.95 "Hg1 mi
8:00 AM54 °FFog.3 mph94%29.95 "Hg0 mi
7:00 AM54 °FFog.5 mph94%29.95 "Hg2 mi
6:00 AM54 °FOvercast.6 mph88%29.92 "HgN/A
3:00 AM52 °FDrizzle. Overcast.6 mph94%29.92 "Hg4 mi
2:00 AM52 °FOvercast.6 mph88%29.95 "HgN/A
12:00 AM52 °FDrizzle. Overcast.10 mph88%29.92 "Hg4 mi
11:00 PM
Aug 31
52 °FDrizzle. Overcast.8 mph88%29.92 "HgN/A
10:00 PM50 °FPassing clouds.3 mph82%29.92 "HgN/A
9:00 PM50 °FPassing clouds.6 mph88%29.92 "HgN/A
8:00 PM52 °FPassing clouds.9 mph88%29.89 "Hg5 mi
7:00 PM52 °FPassing clouds.10 mph88%29.89 "Hg5 mi
6:00 PM54 °FPassing clouds.16 mph82%29.86 "Hg5 mi
Weather by CustomWeather, © 2014

See weather overviewHow to use our weather pages